Weather in Vedrovo

Russia / Kostroma Oblast     57°31′03″N   42°50′36″E
temp.,
°C
wind,
m/s
gust,
m/s
humid.,
%
clouds,
%
prec.,
mm/h
press.,
hPa
HPBL,
m
18 june, fri
fri1800:00+11nne22800 0.0 102624
03:00+10nne11840 0.0 102710
06:00+14ese12705 0.0 1028140
09:00+19s225125 0.0 1028804
12:00+23sw234124 0.0 10271538
15:00+25wsw243914 0.0 10251688
18:00+24wsw355499 0.0 10241041
21:00+18sw24806 0.0 102453
19 june, sat
sat1900:00+16wsw310905 0.0 1024200
03:00+16wsw3118763 0.0 1024255
06:00+18wsw4117614 0.0 1024359
09:00+24w585540 0.0 1023773
12:00+27w69465 0.0 10221669
15:00+28w68455 0.0 10211874
18:00+26w48552 0.0 10211265
21:00+20wsw38840 0.0 1021174
20 june, sun
sun2000:00+18w39944 0.0 1022174
03:00+17w39963 0.0 1023159
06:00+20w36785 0.0 1023205
09:00+26w34545 0.0 1022665
12:00+29wsw44430 0.0 10221818
15:00+29wsw44410 0.0 10211932
18:00+28wsw35515 0.0 1021724
21:00+21wsw23810 0.0 102146
21 june, mon
mon2100:00+19wsw23880 0.0 102158
03:00+17wsw25860 0.0 102280
06:00+20wsw37762 0.0 1021209
09:00+26wsw35555 0.0 1021722
12:00+29wsw44415 0.0 10211827
15:00+30w344066 0.0 10202260
18:00+28wsw465367 0.0 1020643
21:00+22w257810 0.0 102079
22 june, tue
tue2200:00+20w22855 0.0 102133
03:00+19w229121 0.0 102239
06:00+22wnw23794 0.0 1022152
09:00+28w225515 0.0 1022704
12:00+31wsw224193 0.0 10222284
15:00+28se225192 0.0 1022892
18:00+29s245650 0.0 1022512
21:00+24w22760 0.1 102234